Location: Pasadena, ca
(34.1243°N, 118.1037°W)
Time: 21:24:51
(UTC-08:00)

OTV 5 (USA 277) - Pass Details

Date: 10 November 2017
Orbit: 404 x 417 km, 43.0° (Epoch: 07 September)

Event Time Altitude Azimuth Distance (km) Brightness Sun altitude
Exits shadow 03:54:41 11° 67° (ENE) 1,388 ? -30.4°
Drops below altitude 10° 03:54:49 10° 66° (ENE) 1,439 ? -30.4°
Sets 03:56:57 0° 63° (ENE) 2,314 ? -29.9°
